Location: Le Rocchette
(44.3500°N, 7.8333°E)
Time: 12:54:11
(UTC+00:00)

PSLV R/B - Pass Details

Date: 26 February 2020
Orbit: 505 x 578 km, 97.8° (Epoch: 09 April)

Event Time Altitude Azimuth Distance (km) Brightness Sun altitude
Rises 04:22:34 0° 18° (NNE) 2,653 7.7 -20.3°
Reaches altitude 10° 04:24:44 10° 25° (NNE) 1,771 6.8 -20.0°
Maximum altitude 04:28:25 46° 100° (E) 718 4.8 -19.3°
Drops below altitude 10° 04:32:09 10° 174° (S) 1,796 6.4 -18.6°
Sets 04:34:21 0° 181° (S) 2,696 7.3 -18.2°
